EW9000 Weather Reports


Display with metric or nautical units.
time (UTC)temp
F
wind
direction
speed
MPH
gust
MPH
rain 1hr
in
rain 24hr
in
rain mn
in
humidity
%
barometer
mb
20171214100532 32 7 3.0 4.0 0.00 0.00 0.00 65 1016.0
20171214095521 32 30 5.0 6.0 0.00 0.00 0.00 65 1015.9
20171214094521 32 24 4.0 6.0 0.00 0.00 0.00 65 1015.9
20171214093531 32 26 5.0 8.0 0.00 0.00 0.00 64 1015.9
20171214092532 32 26 4.0 5.0 0.00 0.00 0.00 64 1015.9
20171214091527 32 18 5.0 8.0 0.00 0.00 0.00 64 1015.9
20171214090522 33 23 4.0 7.0 0.00 0.00 0.00 63 1015.9
20171214085515 33 33 5.0 6.0 0.00 0.00 0.00 63 1015.8
20171214084532 33 20 4.0 7.0 0.00 0.00 0.00 63 1015.6
20171214083515 34 13 3.0 5.0 0.00 0.00 0.00 61 1015.5
20171214082525 34 359 4.0 5.0 0.00 0.00 0.00 61 1015.5
20171214081526 34 37 4.0 6.0 0.00 0.00 0.00 60 1015.6
20171214080532 34 9 3.0 5.0 0.00 0.00 0.00 59 1015.4
20171214075522 34 4 3.0 5.0 0.00 0.00 0.00 58 1015.4
20171214074523 34 342 2.0 4.0 0.00 0.00 0.00 58 1015.4
20171214073524 34 353 4.0 7.0 0.00 0.00 0.00 58 1015.6
20171214072525 34 306 2.0 4.0 0.00 0.00 0.00 59 1015.6
20171214071527 34 16 3.0 6.0 0.00 0.00 0.00 59 1015.4
20171214070519 34 317 2.0 3.0 0.00 0.00 0.00 59 1015.1
20171214065531 34 46 3.0 7.0 0.00 0.00 0.00 59 1014.9
20171214064527 34 355 3.0 6.0 0.00 0.00 0.00 59 1014.9
20171214063523 34 319 2.0 4.0 0.00 0.00 0.00 59 1014.7
20171214062532 34 8 3.0 5.0 0.00 0.00 0.00 58 1014.6
20171214061526 34 31 4.0 6.0 0.00 0.00 0.00 58 1014.5
20171214060526 34 349 3.0 8.0 0.00 0.00 0.00 58 1014.4
20171214055523 35 359 6.0 9.0 0.00 0.00 0.00 58 1014.6
20171214054515 35 21 6.0 11.0 0.00 0.00 0.00 58 1014.5
20171214053527 36 18 5.0 7.0 0.00 0.00 0.00 58 1014.5
20171214052524 36 354 3.0 6.0 0.00 0.00 0.00 58 1014.5
20171214051515 36 46 6.0 9.0 0.00 0.00 0.00 58 1014.4
20171214050526 36 13 6.0 12.0 0.00 0.00 0.00 58 1014.0
20171214045515 36 12 6.0 9.0 0.00 0.00 0.00 58 1014.1
20171214044517 37 9 7.0 10.0 0.00 0.00 0.00 58 1014.0
20171214043533 37 27 5.0 8.0 0.00 0.00 0.00 58 1013.8
20171214042559 37 32 6.0 11.0 0.00 0.00 0.00 58 1013.6
20171214041521 37 8 9.0 15.0 0.00 0.00 0.00 58 1013.4
20171214040515 38 22 7.0 11.0 0.00 0.00 0.00 59 1013.2
20171214035515 38 13 7.0 10.0 0.00 0.00 0.00 60 1013.1
20171214034517 39 351 6.0 9.0 0.00 0.00 0.00 60 1012.8
20171214033519 39 24 6.0 9.0 0.00 0.00 0.00 61 1012.8
20171214032519 39 32 6.0 10.0 0.00 0.00 0.00 61 1012.8
20171214031517 39 20 9.0 15.0 0.00 0.00 0.00 61 1012.5
20171214030522 40 25 7.0 11.0 0.00 0.00 0.00 62 1012.2
20171214025530 40 30 7.0 11.0 0.00 0.00 0.00 62 1012.0
20171214024530 40 32 8.0 12.0 0.00 0.00 0.00 63 1011.8
20171214023519 41 28 11.0 14.0 0.00 0.00 0.00 62 1011.7
20171214022521 42 15 9.0 13.0 0.00 0.00 0.00 60 1011.5
20171214021517 42 26 7.0 13.0 0.00 0.00 0.00 59 1011.3
20171214020521 42 29 6.0 10.0 0.00 0.00 0.00 60 1011.3
20171214015515 43 8 7.0 14.0 0.00 0.00 0.00 60 1011.0
20171214014521 43 352 6.0 13.0 0.00 0.00 0.00 61 1010.8
20171214013531 43 359 5.0 6.0 0.00 0.00 0.00 62 1010.7
20171214012525 43 20 4.0 6.0 0.00 0.00 0.00 62 1010.6
20171214011517 43 34 4.0 7.0 0.00 0.00 0.00 61 1010.4
20171214010522 43 30 4.0 5.0 0.00 0.00 0.00 59 1010.3
20171214005526 44 6 4.0 6.0 0.00 0.00 0.00 59 1009.9
20171214004555 44 35 3.0 5.0 0.00 0.00 0.00 58 1009.5
20171214003530 44 311 4.0 6.0 0.00 0.00 0.00 57 1009.3
20171214002523 45 338 4.0 8.0 0.00 0.00 0.00 56 1009.0
20171214001516 45 326 4.0 6.0 0.00 0.00 0.00 56 1008.8
20171214000517 45 11 4.0 10.0 0.00 0.00 0.00 55 1008.6
20171213235516 46 327 5.0 8.0 0.00 0.00 0.00 54 1008.5
20171213234521 46 353 4.0 7.0 0.00 0.00 0.00 53 1008.3
20171213233519 47 335 4.0 7.0 0.00 0.00 0.00 52 1008.2
20171213232518 48 264 5.0 10.0 0.00 0.00 0.00 51 1008.1
20171213231528 48 288 5.0 9.0 0.00 0.00 0.00 51 1007.9
20171213230529 48 289 4.0 5.0 0.00 0.00 0.00 50 1007.6
20171213225517 49 295 4.0 6.0 0.00 0.00 0.00 49 1007.4
20171213224532 50 240 5.0 9.0 0.00 0.00 0.00 48 1007.2
20171213223520 50 279 6.0 9.0 0.00 0.00 0.00 47 1007.0
20171213222515 51 130 7.0 9.0 0.00 0.00 0.00 46 1006.8
20171213221522 52 268 7.0 9.0 0.00 0.00 0.00 45 1006.5
20171213220518 52 325 7.0 9.0 0.00 0.00 0.00 44 1006.3
20171213215518 0 0.0 0.0 0.00 0.00 0.00 1006.1
20171213214519 0 0.0 0.0 0.00 0.00 0.00 1006.1
20171213213532 0 0.0 0.0 0.00 0.00 0.00 1005.9
20171213212522 0 0.0 0.0 0.00 0.00 0.00 1005.8
20171213211532 0 0.0 0.0 0.00 0.00 0.00 1005.8
20171213210518 0 247 7.0 7.0 0.00 0.00 0.00 1005.6
20171213205531 55 301 10.0 13.0 0.00 0.00 0.00 44 1005.1
20171213204516 55 336 7.0 11.0 0.00 0.00 0.00 44 1005.2
20171213203524 55 301 6.0 11.0 0.00 0.00 0.00 44 1005.1
20171213202517 56 246 5.0 7.0 0.00 0.00 0.00 44 1005.0
20171213201533 56 19 8.0 10.0 0.00 0.00 0.00 44 1004.8
20171213200516 56 269 7.0 11.0 0.00 0.00 0.00 44 1004.6
20171213195526 56 236 8.0 12.0 0.00 0.00 0.00 44 1004.4
20171213194524 56 304 8.0 13.0 0.00 0.00 0.00 44 1004.3
20171213193515 55 311 6.0 10.0 0.00 0.00 0.00 45 1004.3
20171213192529 56 244 11.0 16.0 0.00 0.00 0.00 45 1004.2
20171213191542 56 302 8.0 16.0 0.00 0.00 0.00 45 1004.0
20171213190519 55 265 10.0 15.0 0.00 0.00 0.00 45 1003.8
20171213185526 56 244 8.0 16.0 0.00 0.00 0.00 44 1003.6
20171213184520 56 300 10.0 16.0 0.00 0.00 0.00 43 1003.8
20171213183526 55 353 9.0 12.0 0.00 0.00 0.00 42 1003.8
20171213182528 55 246 10.0 12.0 0.00 0.00 0.00 42 1003.8
20171213181522 55 235 9.0 15.0 0.00 0.00 0.00 42 1003.8
20171213180531 54 28 8.0 15.0 0.00 0.00 0.00 42 1003.6
20171213175523 53 283 7.0 17.0 0.00 0.00 0.00 43 1003.3
20171213174516 52 251 5.0 9.0 0.00 0.00 0.00 44 1003.6